Fallon NAS, NV

12:25 PM PDT on May 28, 2017 (GMT -0700)
Fallon Naval Air Station

Weather History for KNFL - April, 2012

Change the Weather History Date:

Sunday, April 1, 2012

  Actual Average Record
Temperature  
Mean Temperature 41 °F -  
Max Temperature 54 °F 60 °F 87 °F (1966)
Min Temperature 30 °F 30 °F 15 °F (1975)
Degree Days  
Heating Degree Days 24    
Moisture  
Dew Point 15 °F    
Average Humidity 40    
Maximum Humidity 82    
Minimum Humidity 13    
Precipitation  
Precipitation 0.00 in - - ()
Sea Level Pressure  
Sea Level Pressure 29.94 in    
Wind  
Wind Speed 6 mph (NW)    
Max Wind Speed 17 mph    
Max Gust Speed 30 mph    
Visibility 10 miles    
Events Snow    
Averages and records for this station are not official NWS values.
T = Trace of Precipitation, MM = Missing Value Source: NWS Daily Summary

Daily Weather History Graph

Daily Weather History Graph

Search for Another Location

Airport or City:

Trip Planner

Search our weather history database for the weather conditions in past years. The results will help you decide how hot, cold, wet, or windy it might be!

Date:

Astronomy

Apr. 01, 2012 Rise Set
Actual Time 6:38 AM PDT 7:19 PM PDT
Civil Twilight 6:11 AM PDT 7:46 PM PDT
Nautical Twilight 5:39 AM PDT 8:18 PM PDT
Astronomical Twilight 5:06 AM PDT 8:51 PM PDT
Moon 1:56 PM PDT (4/1) 3:16 AM PDT (4/1)
Length of Visible Light 13h 35m
Length of Day
12h 41m
Waxing Gibbous, 70% of the Moon is Illuminated
Apr 1
Waxing Gibbous
Apr 6
Full
Apr 13
Last Quarter
Apr 21
New
Apr 29
First Quarter

Hourly Weather History & Observations

Time (PDT) Temp. Windchill Dew Point Humidity Pressure Visibility Wind Dir Wind Speed Gust Speed Precip Events Conditions
12:56 AM 37.9 °F - 17.1 °F 43% 29.75 in 10.0 mi Calm Calm - N/A   Clear
1:56 AM 34.0 °F - 17.1 °F 50% 29.76 in 10.0 mi Calm Calm - N/A   Clear
2:56 AM 34.0 °F 28.0 °F 15.1 °F 46% 29.77 in 10.0 mi West 6.9 mph - N/A   Scattered Clouds
3:56 AM 30.9 °F 25.2 °F 16.0 °F 54% 29.80 in 10.0 mi ENE 5.8 mph - N/A   Overcast
4:56 AM 33.1 °F - 18.0 °F 54% 29.82 in 10.0 mi Calm Calm - N/A   Clear
5:56 AM 32.0 °F 27.5 °F 19.0 °F 59% 29.85 in 10.0 mi Variable 4.6 mph - N/A   Mostly Cloudy
6:56 AM 32.0 °F 28.7 °F 19.0 °F 59% 29.88 in 10.0 mi ESE 3.5 mph - N/A   Overcast
7:56 AM 36.0 °F - 19.9 °F 52% 29.91 in 10.0 mi Calm Calm - N/A   Overcast
8:56 AM 39.0 °F - 24.1 °F 55% 29.93 in 10.0 mi Calm Calm - 0.00 in   Overcast
9:56 AM 36.0 °F 26.0 °F 30.9 °F 82% 29.96 in 4.0 mi NNW 17.3 mph 29.9 mph 0.00 in Snow Light Snow
10:56 AM 45.0 °F 37.6 °F 21.9 °F 40% 29.96 in 10.0 mi NW 17.3 mph 23.0 mph 0.00 in   Mostly Cloudy
11:56 AM 45.0 °F 38.9 °F 17.1 °F 33% 29.98 in 10.0 mi WNW 12.7 mph - N/A   Mostly Cloudy
12:56 PM 48.9 °F - 12.9 °F 24% 29.99 in 10.0 mi NW 17.3 mph 25.3 mph N/A   Mostly Cloudy
1:56 PM 50.0 °F - 7.0 °F 18% 29.99 in 10.0 mi NNW 15.0 mph 26.5 mph N/A   Scattered Clouds
2:56 PM 51.1 °F - 3.9 °F 15% 29.99 in 10.0 mi WNW 11.5 mph 20.7 mph N/A   Scattered Clouds
3:56 PM 51.1 °F - 1.9 °F 13% 30.00 in 10.0 mi NNW 8.1 mph 19.6 mph N/A   Partly Cloudy
4:56 PM 52.0 °F - 3.9 °F 14% 29.99 in 10.0 mi North 12.7 mph 24.2 mph N/A   Partly Cloudy
5:56 PM 51.1 °F - 7.0 °F 17% 29.99 in 10.0 mi NW 13.8 mph 26.5 mph N/A   Partly Cloudy
6:56 PM 48.9 °F - 10.0 °F 21% 30.00 in 10.0 mi NW 13.8 mph - N/A   Clear
7:56 PM 45.0 °F 40.1 °F 12.9 °F 27% 30.02 in 10.0 mi NW 9.2 mph - N/A   Clear
8:56 PM 39.9 °F 35.1 °F 15.1 °F 36% 30.05 in 10.0 mi NNW 6.9 mph - N/A   Clear
9:56 PM 42.1 °F 35.7 °F 19.0 °F 40% 30.07 in 10.0 mi NW 11.5 mph - N/A   Clear
10:56 PM 39.9 °F 32.9 °F 21.0 °F 47% 30.08 in 10.0 mi WNW 11.5 mph - N/A   Clear
11:56 PM 39.0 °F 32.3 °F 21.9 °F 50% 30.09 in 10.0 mi WNW 10.4 mph - N/A   Clear